Weather Roundup
Issued by NWS Chicago, IL

Home | Current Version | Previous Version | Text Only | Print | Product List | Glossary On
Versions: 1 2 3 4 5 6 7 8 9 10 11 12 13 14 15 16 17 18 19 20 21 22 23 24 25 26 27 28 29 30 31 32 33 34 35 36 37 38 39 40 41 42 43 44 45 46 47 48 49 50
000
NZUS59 KLOT 230808
HRRLOT

CHICAGO AREA WEATHER ROUNDUP
NATIONAL WEATHER SERVICE CHICAGO/ROMEOVILLE IL
200 AM CST THU FEB 23 2017

NOTE: "FAIR" INDICATES FEW OR NO CLOUDS BELOW 12,000 FEET WITH NO
SIGNIFICANT WEATHER AND/OR OBSTRUCTIONS TO VISIBILITY.

* THESE STATIONS ARE NOT UNDER NWS QUALITY CONTROL. THEY ALSO MAY NOT
  REPORT WEATHER SUCH AS PRECIPITATION OR FOG.

ILZ005-006-012>014-019>023-230900-
NORTHEAST ILLINOIS

CITY           SKY/WX    TMP DP  RH WIND       PRES   REMARKS
OHARE          CLEAR     55  49  80 SW10      29.65R
MIDWAY         CLEAR     57  50  77 W12       29.67R
AURORA         CLEAR     51  47  86 SW9       29.68R
LANSING*       CLEAR     54  53  97 W10       29.68R
JOLIET*        CLEAR     56  52  86 W8        29.69R
WAUKEGAN       CLEAR     53  45  74 W7        29.63R
DUPAGE AIRPORT CLEAR     50  46  86 SW7       29.66R
WHEELING       CLEAR     53  48  83 W3        29.66R
KANKAKEE*      PTCLDY    47  47  98 CALM      29.69S FOG
MORRIS*        CLEAR     53  50  90 SW8       29.68S
LEWIS AIRPORT* CLEAR     53  52  98 W10       29.68R
NORTHERLY ISL    N/A     57  50  77 SW8         N/A
$$

WIZ051-052-058>065-066-070>072-230900-
SOUTHEAST WISCONSIN

CITY           SKY/WX    TMP DP  RH WIND       PRES   REMARKS
MILWAUKEE      CLEAR     55  44  66 W12       29.62R
KENOSHA*       CLEAR     51  44  77 W14       29.63R
RACINE*        CLEAR     53  44  71 W10       29.63R
WAUKESHA       CLEAR     48  41  76 W13G18    29.64R
WEST BEND      CLEAR     50  41  71 W12G17    29.61R
$$

INZ001>003-010>013-019-020-230900-
NORTHWEST INDIANA

CITY           SKY/WX    TMP DP  RH WIND       PRES   REMARKS
GARY*          PTCLDY    57  52  82 SW7       29.67S
MICHIGAN CITY* NOT AVBL
RENSSELAER*    NOT AVBL
VALPARAISO     CLEAR     56  53  90 SW13      29.68S
$$

LMZ740>746-230900-
SOUTHERN LAKE MICHIGAN

STATION/POSITION TIME  SKY/WX   TEMP WIND        PRES    VSBY
                                AIR  DIR/SP/G
                 (UTC)          (F)  (DEG/KT/KT) (MB)    (MI)
HARRISON CRIB    0740            58  250/ 18/ 23   N/A
BURNHAM HARBOR   0800            56  230/  5/ 12   N/A
CALUMET HARBOR   0742            57  220/  8/ 13 1004.2R
BURNS HARBOR     0740            55  240/ 14/ 17 1005.1R
MICHIGAN CITY    0740            54  220/ 20/ 23   N/A
$$

ABBREVIATIONS USED IN REMARKS
   TC - TEMPERATURE IN CELSIUS
  WCI - WIND CHILL INDEX
   HX - HEAT INDEX
  VSB - VISIBILITY
$$



USA.gov is the U.S. government's official web portal to all federal, state and local government web resources and services.